Theta_e
293 293 293 293 294 294 294 295 295 295 294 294 295 295 295 295 296 296 295 295 294 295 295 296 297 298 294 294 298 293 300 299 302 304 305 304 308 306 308 309 309 313 316 317 317 319 321 301 304 312 308 300 298 301
291 293 292 293 294 294 295 295 294 294 294 294 294 294 295 295 295 295 294 294 293 292 293 294 295 297 298 297 297 289 293 291 300 294 301 302 306 304 304 307 303 309 311 313 314 313 309 300 306 303 299 301 299 300
292 292 292 292 293 294 295 294 294 293 293 294 294 294 295 295 295 294 294 294 294 292 292 292 292 294 295 297 298 300 298 297 297 296 301 303 304 300 306 306 304 303 302 306 307 306 307 303 298 296 295 297 295 296
291 291 291 292 292 294 294 294 293 293 293 293 293 294 295 295 294 294 293 293 293 291 290 290 292 293 294 295 295 296 296 296 296 297 300 298 302 301 301 302 304 303 302 303 304 303 302 300 296 296 295 293 292 293
289 290 291 291 292 293 292 292 292 292 293 293 293 294 294 294 294 294 293 293 292 290 289 289 290 292 292 294 294 295 296 297 296 298 300 300 293 295 289 295 301 298 302 305 306 303 303 302 295 295 295 294 292 292
289 290 291 291 292 291 291 291 291 292 292 293 293 294 294 294 294 292 291 292 292 292 292 292 289 288 290 291 293 294 296 297 298 298 298 298 294 295 294 290 296 296 295 297 300 297 295 294 293 295 293 291 289 290
289 290 291 291 290 290 290 291 291 292 292 293 293 293 293 293 292 291 288 290 291 292 289 290 287 284 289 292 293 295 295 297 297 298 299 295 294 298 293 298 297 292 291 294 293 295 298 295 298 295 293 292 289 288
289 290 290 289 290 290 291 291 291 291 292 292 292 292 292 292 292 291 291 292 292 292 290 290 283 288 290 292 295 293 296 295 295 298 295 295 294 296 298 295 289 285 287 287 285 286 289 288 287 287 287 288 289 286
289 290 289 289 289 289 289 290 290 290 291 291 291 291 291 291 290 290 291 291 292 292 292 287 281 283 287 290 291 292 294 295 292 296 294 294 295 297 295 293 287 282 285 283 280 282 284 286 285 283 284 284 284 282
288 289 289 289 289 288 289 289 289 290 291 291 290 288 289 289 290 290 291 290 291 291 290 283 284 290 290 290 290 287 289 292 289 291 291 294 292 285 279 275 275 274 274 274 280 283 284 285 283 281 280 279 280 279
288 288 289 288 288 288 289 289 290 290 290 289 287 288 288 289 289 287 289 288 286 289 282 281 286 285 288 289 290 291 289 288 289 290 292 290 290 286 273 270 270 270 271 270 272 274 274 276 278 276 273 272 272 272
288 288 288 288 288 288 288 289 290 289 288 288 287 287 288 285 286 287 284 280 286 284 278 287 285 284 290 286 292 289 290 287 288 281 290 289 284 270 269 268 265 265 264 265 266 268 268 269 269 268 267 266 265 266
288 288 288 287 287 287 288 289 289 288 287 287 284 282 285 281 284 285 284 280 277 272 279 286 288 291 289 290 290 291 290 289 283 287 286 284 269 264 264 264 263 262 263 264 264 264 264 264 263 264 263 262 263 262
287 287 286 287 287 287 288 289 289 288 287 282 283 284 281 279 275 274 275 276 275 278 273 279 287 287 291 291 292 291 289 285 289 290 285 267 262 260 261 260 261 261 261 263 263 263 263 262 261 260 260 261 262 260
286 286 286 286 286 287 287 287 287 287 286 284 280 281 277 269 265 262 260 267 265 265 276 285 283 289 287 292 292 288 287 289 287 285 266 262 261 261 260 260 260 260 261 261 262 262 261 261 260 258 258 260 260 260
282 282 283 284 285 286 286 286 285 284 274 278 273 275 264 268 265 262 262 264 265 267 273 279 283 285 287 288 285 289 290 290 279 259 259 260 259 258 258 259 258 259 259 259 259 259 259 258 258 257 258 259 259 259
280 280 282 284 283 282 283 282 277 270 271 271 260 261 265 260 259 256 261 263 264 268 284 280 290 284 278 282 281 264 267 258 255 257 258 258 258 258 258 258 258 258 258 258 258 258 257 258 258 259 257 256 258 258
277 279 280 282 280 279 275 273 271 270 266 264 261 257 258 259 261 260 258 261 264 267 269 272 270 275 269 276 273 263 259 257 256 258 258 258 257 257 258 258 257 258 257 257 257 258 258 258 258 256 257 258 258 259
278 278 281 280 279 275 268 270 271 267 263 260 263 262 259 258 259 259 259 261 261 260 263 264 264 262 259 257 258 260 260 261 260 259 258 258 258 258 258 258 257 257 257 257 257 256 256 256 257 258 258 259 257 258
275 275 275 276 277 271 269 269 271 267 263 263 262 261 260 259 259 256 258 259 260 258 256 256 255 255 256 256 256 257 259 260 260 260 259 259 258 258 258 258 258 257 257 257 257 257 257 256 257 258 258 258 258 257
275 271 273 273 270 268 266 269 269 268 265 263 263 264 262 260 257 255 255 257 256 255 255 253 253 254 256 256 256 257 260 261 261 261 260 259 258 257 257 257 257 256 257 256 256 255 254 254 255 257 257 257 257 257
266 267 269 268 267 265 265 264 268 268 265 263 263 262 260 260 258 256 256 255 255 253 253 253 254 255 255 256 256 257 258 259 259 258 258 258 258 257 256 256 255 254 253 253 254 253 253 254 255 256 257 256 256 256
265 264 259 258 261 260 261 263 264 266 266 264 263 262 259 258 258 259 255 254 253 254 254 254 255 255 255 255 255 255 256 256 256 255 255 254 253 254 254 254 254 254 253 252 253 254 253 254 255 255 255 255 255 255
260 253 253 253 255 255 257 259 262 264 264 263 262 261 258 257 258 256 253 250 253 254 254 254 256 256 256 255 254 253 254 255 254 254 254 254 253 251 252 252 253 253 253 253 253 253 253 253 253 254 253 253 253 252
256 249 250 249 252 254 255 256 258 261 260 260 260 259 257 257 257 255 255 253 253 253 254 255 254 255 255 254 254 253 254 255 254 253 252 253 251 251 251 251 252 252 252 253 252 252 252 252 252 252 252 252 252 252
248 248 248 247 250 251 253 254 254 255 258 258 257 257 257 258 257 255 255 254 254 253 252 253 254 254 253 252 254 253 252 254 255 253 253 253 254 254 252 251 250 251 252 252 252 252 252 252 252 252 252 252 251 251
249 248 249 249 250 252 253 253 254 254 254 254 253 256 258 256 255 254 255 254 254 252 251 252 253 254 253 251 251 252 253 255 255 254 253 253 254 254 254 253 252 252 252 252 252 251 251 251 251 251 251 251 252 251
249 249 250 250 250 251 252 252 252 252 252 252 253 253 254 254 253 253 254 252 252 251 251 251 252 252 252 252 252 252 252 253 253 253 252 252 252 252 252 252 252 251 252 252 251 251 251 251 251 251 251 251 251 252
251 251 252 251 252 252 251 251 251 251 251 251 253 252 251 251 249 250 252 252 252 252 251 251 251 252 252 252 252 252 252 252 252 251 249 248 249 252 252 251 251 251 251 251 251 251 250 250 251 252 251 251 251 251
252 250 252 252 253 253 251 250 250 250 251 251 252 252 251 250 251 251 252 252 252 252 251 251 251 252 251 251 251 251 252 252 252 252 247 247 251 252 251 251 251 251 251 251 251 251 251 251 251 252 252 251 251 251
251 252 254 253 253 251 249 247 248 250 251 251 251 251 250 249 252 252 252 253 252 252 251 251 251 252 251 251 252 251 252 252 252 252 252 252 252 252 252 252 252 252 251 251 251 251 250 250 250 250 250 250 251 250
249 248 253 256 254 249 246 248 248 249 249 250 249 247 248 250 252 251 254 253 252 252 253 253 253 253 253 253 252 253 253 253 253 253 253 253 253 253 252 252 252 251 251 251 251 251 251 250 250 250 249 249 250 250
239 239 240 248 249 250 245 245 247 248 246 246 246 240 240 245 252 250 254 254 255 255 255 254 254 254 253 253 253 254 254 254 254 254 253 253 252 252 251 251 252 252 251 251 251 251 251 251 250 250 250 250 250 250
Wind_Speed
40 41 37 37 38 36 35 33 32 31 29 28 28 29 29 28 26 25 12 21 14 3 5 9 8 7 4 5 12 5 2 1 3 6 5 4 4 5 5 4 4 7 6 5 5 7 7 7 3 9 5 3 4 3
45 40 35 35 38 35 33 33 31 29 28 28 27 29 30 29 26 25 8 20 19 3 2 5 13 22 17 12 4 4 4 6 8 3 4 4 4 3 5 11 1 8 12 6 8 5 3 7 3 3 5 7 5 3
42 32 31 31 32 34 31 32 30 29 28 26 26 28 30 30 28 27 18 16 13 2 3 5 9 26 23 29 20 4 3 3 3 3 3 3 6 3 3 5 3 3 2 2 1 5 7 5 3 2 2 3 1 2
19 23 26 26 33 30 28 29 27 27 26 26 25 27 29 29 27 26 20 22 15 1 2 5 4 9 8 15 31 28 18 5 2 3 4 4 2 2 2 3 3 2 1 2 4 7 6 7 5 3 4 3 3 2
23 22 25 24 31 27 25 25 25 25 26 25 25 26 27 27 26 23 21 20 23 5 3 3 9 14 14 15 19 21 19 10 3 4 4 3 1 1 1 2 6 3 4 3 4 4 1 4 5 4 5 4 4 2
23 23 23 23 19 23 24 25 25 25 26 24 23 25 25 25 23 13 2 14 22 24 3 3 3 3 3 10 9 9 10 7 5 3 3 3 6 4 2 3 6 5 2 1 4 1 2 4 6 3 4 3 4 5
23 22 22 22 20 21 23 22 24 25 24 23 22 22 23 23 22 5 5 4 27 28 2 2 3 3 3 5 2 3 5 4 4 2 4 4 4 7 3 8 7 5 4 4 1 2 4 4 4 2 5 6 4 3
16 20 21 20 19 18 16 17 18 19 20 20 19 19 20 20 17 13 20 0 22 10 3 3 4 1 6 5 4 3 3 4 3 3 1 3 2 3 5 8 4 3 2 2 2 4 4 4 4 4 4 2 3 5
14 19 19 19 18 16 17 17 16 18 20 20 18 16 12 11 4 8 18 22 20 9 3 4 5 4 2 3 2 3 3 3 2 4 4 4 3 6 8 9 7 7 5 3 4 3 2 1 1 2 3 4 5 4
7 15 17 17 16 16 15 16 17 19 21 19 14 5 3 7 10 16 8 4 5 5 4 3 4 2 4 1 2 0 1 4 3 4 3 3 3 3 3 2 4 4 2 1 2 1 1 2 1 2 4 4 5 5
11 15 16 16 16 14 15 15 20 22 20 6 2 2 6 15 5 2 3 3 1 2 2 3 6 4 2 3 4 3 3 3 5 5 6 3 3 3 7 6 5 5 4 3 5 3 4 2 4 4 5 6 6 7
9 14 16 15 14 12 12 15 21 16 7 10 9 8 4 3 2 4 3 1 4 6 2 5 4 4 3 3 3 3 4 2 5 2 4 4 3 6 5 6 7 6 6 5 6 5 6 7 8 6 4 5 7 9
11 13 13 12 13 12 10 16 18 24 24 10 3 3 2 0 3 5 6 2 2 2 4 3 4 4 3 4 3 3 4 5 4 1 4 4 3 3 3 3 3 5 3 4 5 7 8 9 13 8 8 10 13 16
9 8 7 7 10 12 11 15 24 24 7 3 3 3 4 1 4 4 4 4 2 0 2 1 2 4 3 4 3 4 2 4 4 3 5 1 2 2 2 3 1 3 3 5 5 7 8 10 10 12 12 11 15 15
23 21 19 16 15 13 13 8 14 14 4 3 4 5 5 2 2 1 2 2 4 2 2 1 2 2 2 4 2 3 2 4 6 5 2 2 3 4 5 3 3 3 3 4 4 7 9 10 12 15 16 21 22 21
15 17 17 11 12 14 13 11 9 5 4 3 6 1 2 3 2 4 4 2 4 5 3 2 3 2 5 2 3 5 4 5 2 1 2 2 1 3 4 3 4 5 5 6 8 10 13 12 13 14 23 26 24 24
7 6 8 11 15 12 10 5 6 6 4 4 2 3 3 4 2 1 2 3 5 3 2 2 5 6 2 2 1 2 2 2 3 2 2 4 4 4 3 5 6 8 10 11 12 13 14 14 16 19 15 17 23 26
7 8 4 12 8 8 6 8 4 4 6 3 3 2 2 4 2 2 2 4 3 2 3 1 2 3 0 2 1 2 2 1 1 2 3 4 4 4 6 7 10 10 13 13 13 14 15 15 16 12 16 19 22 22
12 9 8 9 5 6 3 5 5 4 2 2 3 3 3 3 4 4 3 3 4 4 2 3 5 2 1 1 1 2 1 1 1 3 4 6 7 7 10 12 11 13 16 13 14 13 15 17 14 15 16 17 15 15
16 16 12 9 4 4 4 3 4 4 2 2 2 2 3 3 1 2 6 5 3 3 6 5 2 0 1 1 1 3 1 3 3 4 4 5 8 10 11 8 11 12 15 15 15 11 13 16 18 15 15 15 16 15
3 10 9 7 6 11 4 3 3 2 3 3 2 2 3 2 2 4 3 4 4 4 3 1 2 2 3 4 5 5 1 2 2 1 2 3 7 10 10 10 12 11 12 11 10 10 13 12 11 12 14 15 13 12
8 7 5 10 5 4 4 7 2 2 3 2 2 2 3 2 2 3 2 5 3 1 1 1 2 2 2 2 4 9 8 12 12 13 13 10 3 3 6 8 10 9 11 12 11 10 11 12 11 11 12 12 9 8
4 8 9 16 6 6 2 9 4 3 3 2 2 3 3 2 2 1 3 2 1 1 3 2 2 4 5 8 10 14 13 12 10 11 11 12 13 12 13 14 10 10 9 10 10 10 11 10 9 8 7 6 5 5
9 8 7 5 7 3 3 4 3 3 3 3 3 3 2 1 1 3 3 1 1 4 3 4 3 1 5 9 5 7 10 12 15 14 12 12 11 11 14 14 13 11 10 9 8 8 7 7 6 6 6 6 7 8
8 10 6 7 4 5 6 4 5 3 3 3 2 2 2 1 2 3 2 1 2 2 3 5 6 4 3 3 5 7 11 11 9 7 10 16 16 13 11 11 10 8 5 4 7 6 6 6 5 5 6 8 10 12
9 4 5 4 4 4 4 3 4 4 3 3 3 2 1 2 3 2 1 1 1 2 2 2 2 3 4 6 2 4 7 9 12 9 7 7 5 5 5 3 2 2 3 4 4 4 5 6 7 8 9 10 11 14
6 4 3 1 0 2 3 2 2 4 4 3 2 3 1 3 2 0 0 3 1 1 1 3 4 7 6 6 6 7 6 5 5 8 9 7 5 4 2 2 3 0 3 4 5 6 7 8 10 11 14 17 18 18
2 4 4 5 3 3 3 3 4 4 2 3 1 3 2 2 2 1 2 2 4 5 5 7 9 9 8 7 6 7 7 7 7 6 4 2 2 1 0 2 4 4 6 7 8 10 11 12 14 16 19 23 25 23
3 3 1 5 3 4 4 4 3 2 2 1 1 2 2 1 1 2 2 4 5 6 6 5 5 5 5 4 2 3 5 7 3 1 1 2 3 2 6 5 7 10 11 12 12 13 14 16 19 20 20 23 28 29
4 2 2 2 4 4 3 2 3 2 1 0 0 2 2 2 1 3 3 3 3 4 4 4 3 3 2 2 2 3 4 6 9 8 3 2 2 5 8 12 14 13 15 17 18 18 16 17 19 22 24 26 28 30
4 2 3 4 3 1 3 5 5 3 2 3 4 3 1 1 2 2 3 4 5 5 4 2 2 2 3 2 2 1 1 2 4 5 7 10 12 12 12 13 15 15 16 17 18 19 20 22 24 25 28 29 31 31
4 4 2 3 1 2 4 3 2 2 3 2 3 2 2 2 2 2 4 8 8 7 7 6 5 2 1 2 3 4 6 7 7 8 10 12 13 13 15 16 16 16 18 20 21 22 23 25 27 28 30 32 34 35
2 1 2 2 3 3 3 3 4 3 3 3 2 1 2 2 2 3 5 9 7 4 4 3 3 4 5 7 8 8 9 10 10 11 13 15 17 19 19 21 22 23 22 23 25 26 27 28 30 32 33 35 37 37
Wind_Direction
253 248 246 245 246 242 239 230 224 223 225 227 230 229 225 221 219 214 213 211 194 216 227 196 196 216 264 211 231 213 126 171 207 223 223 215 228 232 211 196 192 192 201 198 217 252 248 165 93 167 203 173 186 244
258 242 242 242 244 240 234 224 222 221 224 226 229 227 223 219 215 210 201 202 222 215 279 237 246 231 229 230 220 223 207 181 206 181 216 229 236 197 229 243 178 239 221 212 194 217 253 203 229 218 174 179 210 201
233 234 238 242 240 237 226 222 220 220 223 225 228 226 220 216 212 210 202 187 194 245 265 225 232 246 226 227 231 221 218 223 232 190 165 242 241 138 203 221 212 266 239 212 32 249 253 244 229 241 215 233 176 243
246 237 237 236 240 219 216 220 218 221 221 223 226 222 216 212 210 208 197 194 186 130 234 268 261 253 228 235 229 224 228 205 278 302 228 212 221 169 242 315 246 200 140 242 289 288 288 262 233 248 225 223 226 233
248 248 238 233 229 206 211 220 219 221 221 221 221 217 211 208 206 209 211 200 203 178 209 260 314 287 269 242 226 211 219 217 195 217 226 238 190 90 219 136 248 210 217 210 239 233 280 291 330 309 206 222 237 227
241 238 232 222 215 213 214 217 221 220 215 213 212 209 203 202 198 166 171 207 212 207 234 239 293 285 258 246 233 208 205 217 212 194 199 193 176 167 220 252 259 217 242 154 280 285 268 288 280 275 183 118 68 65
235 222 209 210 211 215 215 213 210 206 203 200 199 197 194 196 184 161 176 201 200 187 149 260 271 284 216 236 231 217 185 219 203 249 207 196 208 183 178 241 239 218 250 211 280 343 276 230 286 193 149 129 99 71
218 203 195 196 194 191 187 191 190 190 190 189 190 192 195 198 202 210 217 92 167 176 160 201 259 277 191 210 210 187 179 193 211 194 154 208 154 212 221 227 177 163 184 151 12 320 289 317 4 22 29 42 132 85
210 187 181 182 181 178 189 192 191 190 188 187 188 190 194 202 173 205 214 223 202 212 201 158 158 224 261 225 187 186 162 197 168 205 197 168 204 208 204 210 192 184 188 166 315 305 57 144 63 25 99 73 98 83
157 172 174 174 178 183 190 198 200 192 186 176 152 136 158 187 155 159 139 172 202 205 205 198 154 207 189 138 306 22 166 207 184 215 134 206 236 281 205 124 95 134 150 147 149 267 118 172 105 65 63 64 84 92
187 175 176 176 175 177 187 196 189 179 159 115 117 143 122 140 104 139 177 173 184 240 198 206 187 172 233 156 209 233 222 237 186 202 163 156 273 240 117 101 63 37 18 13 346 72 72 102 119 119 74 59 71 77
184 172 166 170 172 180 186 187 169 152 115 135 130 119 119 83 121 150 166 29 196 215 263 165 207 172 172 160 182 214 207 157 236 139 133 196 231 31 61 72 39 20 17 38 16 37 45 68 67 81 71 68 64 90
144 153 168 172 178 181 187 186 161 131 119 95 82 83 119 295 107 170 177 234 255 228 211 175 185 163 163 198 199 174 224 208 123 180 212 210 99 60 33 59 56 8 39 66 62 55 60 69 72 66 81 77 91 86
120 128 156 167 179 177 177 183 154 138 97 102 130 131 167 248 241 183 183 183 219 356 315 285 178 178 184 195 175 208 158 126 190 222 238 40 16 87 55 33 346 35 35 85 80 80 78 82 79 73 74 88 92 81
89 86 88 91 103 111 117 120 113 117 84 143 115 198 200 189 57 249 220 80 357 283 276 235 267 216 229 252 163 118 142 219 204 220 23 5 23 303 67 55 60 59 54 71 77 96 92 90 88 79 77 86 88 89
86 66 56 84 102 103 113 110 63 53 57 57 35 95 344 64 339 27 4 14 359 324 275 244 214 211 225 228 154 208 183 205 214 72 293 2 307 354 52 64 73 78 71 74 71 84 91 89 88 87 81 82 85 85
58 58 52 102 106 110 128 82 46 44 55 51 21 12 41 88 113 192 338 338 321 311 195 303 209 218 355 134 220 51 262 306 295 316 354 16 44 45 55 62 62 83 86 81 83 83 88 90 91 84 77 75 83 82
75 82 83 146 124 87 53 42 76 69 62 24 72 317 51 24 42 21 330 337 343 13 349 81 309 53 93 194 119 48 102 338 350 31 41 37 34 49 82 88 76 81 80 76 78 79 80 82 83 86 94 96 89 88
89 67 89 124 151 91 79 35 47 89 95 122 102 75 82 86 61 13 343 353 57 32 56 34 66 71 69 355 343 2 65 63 54 58 57 55 69 76 83 81 82 81 82 76 73 72 75 80 86 95 99 96 86 82
84 63 63 74 91 77 72 36 69 86 90 155 64 63 80 74 16 13 14 13 38 49 46 41 43 352 274 352 304 296 336 102 116 111 93 73 58 70 62 79 86 89 89 83 75 75 81 75 76 78 83 86 86 75
78 18 45 72 58 60 76 23 64 78 107 84 170 66 78 69 42 16 8 355 62 33 66 49 271 264 280 283 308 286 23 150 91 340 103 97 66 77 78 72 81 75 80 79 80 68 69 73 76 82 84 80 82 81
28 23 73 40 77 56 71 18 47 81 71 114 71 49 46 41 25 18 328 41 57 28 6 314 299 307 350 26 342 15 64 83 86 84 85 89 90 72 66 68 83 76 70 73 86 87 83 83 87 91 91 93 93 92
50 45 49 17 72 42 340 347 70 19 82 77 66 56 39 46 19 67 71 63 97 357 295 275 345 48 58 48 58 51 68 88 83 79 83 83 79 78 82 82 85 92 90 81 91 93 88 88 88 88 92 95 84 59
47 48 35 41 28 40 348 30 11 49 66 58 56 69 34 21 60 58 73 25 313 341 357 356 14 67 61 53 44 26 45 87 90 79 84 97 89 70 92 91 89 90 98 106 95 87 82 79 73 61 51 43 29 14
73 1 39 6 2 29 33 23 12 44 70 43 85 69 2 5 72 56 57 333 6 359 355 24 54 56 81 84 65 51 74 90 101 97 90 118 115 107 95 93 89 87 98 118 98 82 64 47 31 24 16 5 356 349
68 331 57 2 3 41 6 56 33 26 22 70 47 359 25 68 69 63 31 47 41 15 0 10 73 93 62 42 67 53 52 100 115 94 121 136 131 143 152 156 149 97 63 48 47 33 19 10 358 343 334 332 328 320
53 343 339 45 69 336 56 45 29 49 59 44 353 352 54 70 79 36 152 35 60 48 33 46 92 103 116 111 89 74 85 112 125 129 126 119 110 106 110 146 171 75 360 351 345 337 326 323 317 313 310 311 314 316
100 35 44 328 35 14 68 46 32 29 19 350 290 42 79 111 140 27 42 70 122 125 103 91 97 105 109 112 120 121 112 117 117 114 111 133 209 201 161 43 22 345 334 328 316 306 302 304 306 308 306 306 308 314
41 354 25 15 34 51 40 22 8 336 352 330 34 90 115 38 308 332 77 124 133 131 121 114 95 103 98 98 148 195 200 187 173 112 120 273 322 270 251 256 316 320 310 302 299 298 299 301 303 305 299 297 301 303
350 350 91 49 44 44 359 343 324 328 268 81 179 117 84 21 23 114 132 140 151 135 134 130 119 141 146 200 243 242 217 211 222 232 182 231 285 303 290 292 297 302 302 302 302 302 299 293 291 291 294 298 301 304
312 351 60 40 74 356 322 311 290 285 358 42 17 75 99 298 263 215 207 191 176 172 176 190 201 212 219 235 235 275 316 228 246 261 273 288 299 304 307 305 304 301 300 299 300 300 301 301 301 301 301 301 301 302
15 37 18 74 93 10 3 13 353 45 356 46 10 355 353 36 0 270 208 194 203 222 236 241 250 259 268 294 301 298 301 302 297 294 294 300 303 304 303 301 301 301 300 298 297 296 295 294 294 294 294 295 298 300
43 47 46 46 15 4 2 10 21 8 28 32 347 246 232 187 210 262 224 214 218 209 212 229 242 269 293 299 302 300 294 298 290 285 288 292 299 305 303 303 304 303 301 297 294 293 292 291 290 292 294 295 295 296